Time,TemperatureF,DewpointF,PressureIn,WindDirection,WindDirectionDegrees,WindSpeedMPH,WindSpeedGustMPH,Humidity,HourlyPrecipIn,Conditions,Clouds,dailyrainin,SoftwareType,DateUTC
2013-03-02 00:02:00,21.0,10.0,30.23,NE,45,6.0,15.0,61,-99.99,,,-99.99,,2013-03-02 05:02:00,
2013-03-02 00:12:00,21.0,10.0,30.23,NE,45,6.0,15.0,61,-99.99,,,-99.99,,2013-03-02 05:12:00,
2013-03-02 00:22:00,21.0,9.0,30.22,NE,40,6.0,11.0,61,-99.99,,,-99.99,,2013-03-02 05:22:00,
2013-03-02 00:32:00,21.0,10.0,30.22,NE,35,6.0,15.0,64,-99.99,,,-99.99,,2013-03-02 05:32:00,
2013-03-02 00:42:00,21.0,10.0,30.22,NE,35,6.0,15.0,64,-99.99,,,-99.99,,2013-03-02 05:42:00,
2013-03-02 00:52:00,20.0,10.0,30.22,East,85,4.0,10.0,64,-99.99,,,-99.99,,2013-03-02 05:52:00,
2013-03-02 01:01:00,19.0,11.0,30.22,NE,40,4.0,11.0,68,-99.99,,,-99.99,,2013-03-02 06:01:00,
2013-03-02 01:11:00,19.0,11.0,30.22,NE,40,4.0,11.0,68,-99.99,,,-99.99,,2013-03-02 06:11:00,
2013-03-02 01:21:00,20.0,11.0,30.21,NNE,25,4.0,14.0,68,-99.99,,,-99.99,,2013-03-02 06:21:00,
2013-03-02 01:32:00,20.0,11.0,30.21,NE,35,4.0,16.0,69,-99.99,,,-99.99,,2013-03-02 06:32:00,
2013-03-02 01:42:00,20.0,11.0,30.21,NE,35,4.0,16.0,69,-99.99,,,-99.99,,2013-03-02 06:42:00,
2013-03-02 01:52:00,20.0,12.0,30.21,NE,35,5.0,16.0,71,-99.99,,,-99.99,,2013-03-02 06:52:00,
2013-03-02 02:01:00,20.0,13.0,30.21,NNE,25,9.0,17.0,72,-99.99,,,-99.99,,2013-03-02 07:01:00,
2013-03-02 02:11:00,20.0,13.0,30.21,NNE,25,9.0,17.0,72,-99.99,,,-99.99,,2013-03-02 07:11:00,
2013-03-02 02:21:00,20.0,13.0,30.22,NNE,30,6.0,16.0,73,-99.99,,,-99.99,,2013-03-02 07:21:00,
2013-03-02 02:32:00,20.0,14.0,30.22,NE,35,6.0,19.0,74,-99.99,,,-99.99,,2013-03-02 07:32:00,
2013-03-02 02:42:00,20.0,14.0,30.22,NE,35,6.0,19.0,74,-99.99,,,-99.99,,2013-03-02 07:42:00,
2013-03-02 02:51:00,20.0,13.0,30.21,NNE,20,5.0,12.0,75,-99.99,,,-99.99,,2013-03-02 07:51:00,
2013-03-02 03:01:00,20.0,13.0,30.21,NNE,20,5.0,12.0,75,-99.99,,,-99.99,,2013-03-02 08:01:00,
2013-03-02 03:11:00,20.0,13.0,30.21,NNE,20,5.0,12.0,75,-99.99,,,-99.99,,2013-03-02 08:11:00,
2013-03-02 03:22:00,20.0,14.0,30.21,East,90,6.0,18.0,76,-99.99,,,-99.99,,2013-03-02 08:22:00,
2013-03-02 03:32:00,20.0,14.0,30.20,North,0,8.0,16.0,76,-99.99,,,-99.99,,2013-03-02 08:32:00,
2013-03-02 03:42:00,20.0,14.0,30.20,North,0,8.0,16.0,76,-99.99,,,-99.99,,2013-03-02 08:42:00,
2013-03-02 03:52:00,20.0,14.0,30.20,NNE,15,5.0,16.0,79,-99.99,,,-99.99,,2013-03-02 08:52:00,
2013-03-02 04:02:00,20.0,14.0,30.20,NNE,15,5.0,16.0,79,-99.99,,,-99.99,,2013-03-02 09:02:00,
2013-03-02 04:11:00,20.0,14.0,30.20,NNE,15,5.0,16.0,79,-99.99,,,-99.99,,2013-03-02 09:11:00,
2013-03-02 04:21:00,20.0,14.0,30.20,NNE,30,6.0,14.0,80,-99.99,,,-99.99,,2013-03-02 09:21:00,
2013-03-02 04:32:00,20.0,15.0,30.20,NNE,15,5.0,15.0,81,-99.99,,,-99.99,,2013-03-02 09:32:00,
2013-03-02 04:42:00,20.0,15.0,30.20,NNE,15,5.0,15.0,81,-99.99,,,-99.99,,2013-03-02 09:42:00,
2013-03-02 04:51:00,19.0,15.0,30.19,NE,35,8.0,14.0,81,-99.99,,,-99.99,,2013-03-02 09:51:00,
2013-03-02 05:01:00,19.0,15.0,30.19,NE,35,8.0,14.0,81,-99.99,,,-99.99,,2013-03-02 10:01:00,
2013-03-02 05:16:00,19.0,15.0,30.19,NE,35,8.0,14.0,81,-99.99,,,-99.99,,2013-03-02 10:16:00,
2013-03-02 05:22:00,19.0,14.0,30.19,NE,50,6.0,14.0,81,-99.99,,,-99.99,,2013-03-02 10:22:00,
2013-03-02 05:32:00,19.0,15.0,30.19,North,5,6.0,14.0,81,-99.99,,,-99.99,,2013-03-02 10:32:00,
2013-03-02 05:42:00,19.0,15.0,30.19,North,5,6.0,14.0,81,-99.99,,,-99.99,,2013-03-02 10:42:00,
2013-03-02 05:52:00,19.0,15.0,30.20,North,10,6.0,14.0,82,-99.99,,,-99.99,,2013-03-02 10:52:00,
2013-03-02 06:01:00,19.0,15.0,30.19,NNE,15,5.0,12.0,82,-99.99,,,-99.99,,2013-03-02 11:01:00,
2013-03-02 06:11:00,19.0,15.0,30.19,NNE,15,5.0,12.0,82,-99.99,,,-99.99,,2013-03-02 11:11:00,
2013-03-02 06:21:00,19.0,14.0,30.19,North,5,7.0,14.0,82,-99.99,,,-99.99,,2013-03-02 11:21:00,
2013-03-02 06:32:00,19.0,14.0,30.20,NE,35,6.0,15.0,82,-99.99,,,-99.99,,2013-03-02 11:32:00,
2013-03-02 06:42:00,19.0,14.0,30.20,NE,35,6.0,15.0,82,-99.99,,,-99.99,,2013-03-02 11:42:00,
2013-03-02 06:52:00,19.0,14.0,30.20,NNE,20,5.0,11.0,82,-99.99,,,-99.99,,2013-03-02 11:52:00,
2013-03-02 07:02:00,19.0,14.0,30.20,NNE,20,5.0,11.0,82,-99.99,,,-99.99,,2013-03-02 12:02:00,
2013-03-02 07:11:00,19.0,14.0,30.20,NNE,20,5.0,11.0,82,-99.99,,,-99.99,,2013-03-02 12:11:00,
2013-03-02 07:21:00,19.0,14.0,30.20,NNE,20,6.0,15.0,82,-99.99,,,-99.99,,2013-03-02 12:21:00,
2013-03-02 07:33:00,19.0,14.0,30.21,NE,35,5.0,13.0,82,-99.99,,,-99.99,,2013-03-02 12:33:00,
2013-03-02 07:43:00,19.0,14.0,30.21,NE,35,5.0,13.0,82,-99.99,,,-99.99,,2013-03-02 12:43:00,
2013-03-02 07:53:00,19.0,14.0,30.21,NNE,25,6.0,14.0,80,-99.99,,,-99.99,,2013-03-02 12:53:00,
2013-03-02 08:01:00,19.0,14.0,30.21,NE,45,6.0,16.0,81,-99.99,,,-99.99,,2013-03-02 13:01:00,
2013-03-02 08:11:00,19.0,14.0,30.21,NE,45,6.0,16.0,81,-99.99,,,-99.99,,2013-03-02 13:11:00,
2013-03-02 08:22:00,19.0,14.0,30.21,NE,45,6.0,14.0,82,-99.99,,,-99.99,,2013-03-02 13:22:00,
2013-03-02 08:32:00,19.0,14.0,30.21,North,355,6.0,14.0,81,-99.99,,,-99.99,,2013-03-02 13:32:00,
2013-03-02 08:42:00,19.0,14.0,30.21,North,355,6.0,14.0,81,-99.99,,,-99.99,,2013-03-02 13:42:00,
2013-03-02 08:52:00,19.0,14.0,30.21,NNE,20,7.0,14.0,82,-99.99,,,-99.99,,2013-03-02 13:52:00,
2013-03-02 09:01:00,19.0,14.0,30.21,NNE,20,6.0,14.0,82,-99.99,,,-99.99,,2013-03-02 14:01:00,
2013-03-02 09:11:00,19.0,14.0,30.21,NNE,20,6.0,14.0,82,-99.99,,,-99.99,,2013-03-02 14:11:00,
2013-03-02 09:21:00,19.0,14.0,30.20,North,5,5.0,11.0,81,-99.99,,,-99.99,,2013-03-02 14:21:00,
2013-03-02 09:32:00,19.0,15.0,30.21,NNE,30,4.0,12.0,81,-99.99,,,-99.99,,2013-03-02 14:32:00,
2013-03-02 09:42:00,19.0,15.0,30.21,NNE,30,4.0,12.0,81,-99.99,,,-99.99,,2013-03-02 14:42:00,
2013-03-02 09:52:00,20.0,14.0,30.20,NNE,15,7.0,14.0,79,-99.99,,,-99.99,,2013-03-02 14:52:00,
2013-03-02 10:02:00,20.0,14.0,30.21,NE,35,6.0,14.0,78,-99.99,,,-99.99,,2013-03-02 15:02:00,
2013-03-02 10:11:00,20.0,14.0,30.21,NE,35,6.0,14.0,78,-99.99,,,-99.99,,2013-03-02 15:11:00,
2013-03-02 10:21:00,20.0,14.0,30.20,NNE,30,7.0,17.0,78,-99.99,,,-99.99,,2013-03-02 15:21:00,
2013-03-02 10:32:00,20.0,14.0,30.20,North,10,5.0,15.0,78,-99.99,,,-99.99,,2013-03-02 15:32:00,
2013-03-02 10:42:00,20.0,14.0,30.20,North,10,5.0,15.0,78,-99.99,,,-99.99,,2013-03-02 15:42:00,
2013-03-02 10:52:00,20.0,14.0,30.20,NNE,15,6.0,12.0,78,-99.99,,,-99.99,,2013-03-02 15:52:00,
2013-03-02 11:02:00,20.0,14.0,30.20,North,5,6.0,13.0,78,-99.99,,,-99.99,,2013-03-02 16:02:00,
2013-03-02 11:11:00,20.0,14.0,30.20,North,5,6.0,13.0,78,-99.99,,,-99.99,,2013-03-02 16:11:00,
2013-03-02 11:21:00,20.0,15.0,30.21,North,350,6.0,14.0,79,-99.99,,,-99.99,,2013-03-02 16:21:00,
2013-03-02 11:32:00,21.0,15.0,30.20,NNE,25,4.0,14.0,79,-99.99,,,-99.99,,2013-03-02 16:32:00,
2013-03-02 11:42:00,21.0,15.0,30.20,NNE,25,4.0,14.0,79,-99.99,,,-99.99,,2013-03-02 16:42:00,
2013-03-02 11:52:00,21.0,15.0,30.20,NNE,15,5.0,14.0,79,-99.99,,,-99.99,,2013-03-02 16:52:00,
2013-03-02 12:01:00,21.0,15.0,30.20,North,5,6.0,17.0,78,-99.99,,,-99.99,,2013-03-02 17:01:00,
2013-03-02 12:11:00,21.0,15.0,30.20,North,5,6.0,17.0,78,-99.99,,,-99.99,,2013-03-02 17:11:00,
2013-03-02 12:21:00,21.0,15.0,30.20,North,355,8.0,13.0,77,-99.99,,,-99.99,,2013-03-02 17:21:00,
2013-03-02 12:32:00,21.0,15.0,30.19,NNW,340,4.0,13.0,78,-99.99,,,-99.99,,2013-03-02 17:32:00,
2013-03-02 12:42:00,21.0,15.0,30.19,NNW,340,4.0,13.0,78,-99.99,,,-99.99,,2013-03-02 17:42:00,
2013-03-02 12:52:00,21.0,15.0,30.20,North,350,7.0,13.0,79,-99.99,,,-99.99,,2013-03-02 17:52:00,
2013-03-02 13:02:00,21.0,15.0,30.20,NNE,20,6.0,13.0,78,-99.99,,,-99.99,,2013-03-02 18:02:00,
2013-03-02 13:11:00,21.0,15.0,30.20,NNE,20,6.0,13.0,78,-99.99,,,-99.99,,2013-03-02 18:11:00,
2013-03-02 13:22:00,21.0,15.0,30.20,North,5,6.0,14.0,77,-99.99,,,-99.99,,2013-03-02 18:22:00,
2013-03-02 13:32:00,21.0,15.0,30.20,NNE,15,6.0,15.0,76,-99.99,,,-99.99,,2013-03-02 18:32:00,
2013-03-02 13:42:00,21.0,15.0,30.20,NNE,15,6.0,15.0,76,-99.99,,,-99.99,,2013-03-02 18:42:00,
2013-03-02 13:52:00,21.0,14.0,30.19,North,355,5.0,15.0,75,-99.99,,,-99.99,,2013-03-02 18:52:00,
2013-03-02 14:01:00,21.0,14.0,30.19,North,355,5.0,15.0,75,-99.99,,,-99.99,,2013-03-02 19:01:00,
2013-03-02 14:11:00,21.0,14.0,30.19,North,355,5.0,15.0,75,-99.99,,,-99.99,,2013-03-02 19:11:00,
2013-03-02 14:22:00,21.0,14.0,30.19,North,5,6.0,14.0,73,-99.99,,,-99.99,,2013-03-02 19:22:00,
2013-03-02 14:32:00,21.0,14.0,30.19,North,0,9.0,17.0,72,-99.99,,,-99.99,,2013-03-02 19:32:00,
2013-03-02 14:42:00,21.0,14.0,30.19,North,0,9.0,17.0,72,-99.99,,,-99.99,,2013-03-02 19:42:00,
2013-03-02 14:52:00,21.0,13.0,30.19,NNE,15,7.0,16.0,69,-99.99,,,-99.99,,2013-03-02 19:52:00,
2013-03-02 15:01:00,22.0,13.0,30.18,NNE,15,6.0,14.0,68,-99.99,,,-99.99,,2013-03-02 20:01:00,
2013-03-02 15:11:00,22.0,13.0,30.18,NNE,15,6.0,14.0,68,-99.99,,,-99.99,,2013-03-02 20:11:00,
2013-03-02 15:22:00,22.0,14.0,30.19,North,5,5.0,11.0,71,-99.99,,,-99.99,,2013-03-02 20:22:00,
2013-03-02 15:32:00,22.0,14.0,30.18,North,0,6.0,14.0,73,-99.99,,,-99.99,,2013-03-02 20:32:00,
2013-03-02 15:42:00,22.0,14.0,30.18,North,0,6.0,14.0,73,-99.99,,,-99.99,,2013-03-02 20:42:00,
2013-03-02 15:52:00,22.0,13.0,30.18,North,5,5.0,16.0,70,-99.99,,,-99.99,,2013-03-02 20:52:00,
2013-03-02 16:02:00,21.0,13.0,30.18,North,5,7.0,14.0,71,-99.99,,,-99.99,,2013-03-02 21:02:00,
2013-03-02 16:11:00,21.0,13.0,30.18,North,5,7.0,14.0,71,-99.99,,,-99.99,,2013-03-02 21:11:00,
2013-03-02 16:22:00,21.0,11.0,30.18,North,5,7.0,16.0,66,-99.99,,,-99.99,,2013-03-02 21:22:00,
2013-03-02 16:32:00,21.0,12.0,30.18,North,355,7.0,15.0,66,-99.99,,,-99.99,,2013-03-02 21:32:00,
2013-03-02 16:42:00,21.0,12.0,30.18,North,355,7.0,15.0,66,-99.99,,,-99.99,,2013-03-02 21:42:00,
2013-03-02 16:52:00,22.0,12.0,30.17,NW,325,7.0,15.0,64,-99.99,,,-99.99,,2013-03-02 21:52:00,
2013-03-02 17:02:00,22.0,12.0,30.17,NW,325,7.0,15.0,64,-99.99,,,-99.99,,2013-03-02 22:02:00,
2013-03-02 17:11:00,22.0,12.0,30.17,NW,325,7.0,15.0,64,-99.99,,,-99.99,,2013-03-02 22:11:00,
2013-03-02 17:22:00,22.0,12.0,30.17,North,0,5.0,16.0,64,-99.99,,,-99.99,,2013-03-02 22:22:00,
2013-03-02 17:32:00,21.0,11.0,30.17,North,10,5.0,15.0,63,-99.99,,,-99.99,,2013-03-02 22:32:00,
2013-03-02 17:42:00,21.0,11.0,30.17,North,10,5.0,15.0,63,-99.99,,,-99.99,,2013-03-02 22:42:00,
2013-03-02 17:51:00,22.0,12.0,30.17,NW,320,5.0,15.0,64,-99.99,,,-99.99,,2013-03-02 22:51:00,
2013-03-02 18:01:00,22.0,11.0,30.17,WNW,300,5.0,14.0,62,-99.99,,,-99.99,,2013-03-02 23:01:00,
2013-03-02 18:11:00,22.0,11.0,30.17,WNW,300,5.0,14.0,62,-99.99,,,-99.99,,2013-03-02 23:11:00,
2013-03-02 18:21:00,22.0,11.0,30.17,NNW,345,5.0,14.0,63,-99.99,,,-99.99,,2013-03-02 23:21:00,
2013-03-02 18:32:00,21.0,11.0,30.17,North,355,7.0,15.0,63,-99.99,,,-99.99,,2013-03-02 23:32:00,
2013-03-02 18:42:00,21.0,11.0,30.17,North,355,7.0,15.0,63,-99.99,,,-99.99,,2013-03-02 23:42:00,
2013-03-02 18:52:00,21.0,10.0,30.16,NNW,335,4.0,13.0,62,-99.99,,,-99.99,,2013-03-02 23:52:00,
2013-03-02 19:02:00,20.0,9.0,30.16,NW,320,4.0,11.0,63,-99.99,,,-99.99,,2013-03-03 00:02:00,
2013-03-02 19:11:00,20.0,9.0,30.16,NW,320,4.0,11.0,63,-99.99,,,-99.99,,2013-03-03 00:11:00,
2013-03-02 19:22:00,19.0,9.0,30.16,North,10,4.0,11.0,65,-99.99,,,-99.99,,2013-03-03 00:22:00,
2013-03-02 19:32:00,19.0,9.0,30.16,NNW,330,6.0,11.0,65,-99.99,,,-99.99,,2013-03-03 00:32:00,
2013-03-02 19:42:00,19.0,9.0,30.16,NNW,330,6.0,11.0,65,-99.99,,,-99.99,,2013-03-03 00:42:00,
2013-03-02 19:52:00,19.0,9.0,30.15,NNW,330,3.0,13.0,64,-99.99,,,-99.99,,2013-03-03 00:52:00,
2013-03-02 20:01:00,19.0,9.0,30.15,NNW,335,5.0,14.0,63,-99.99,,,-99.99,,2013-03-03 01:01:00,
2013-03-02 20:11:00,19.0,9.0,30.15,NNW,335,5.0,14.0,63,-99.99,,,-99.99,,2013-03-03 01:11:00,
2013-03-02 20:21:00,19.0,9.0,30.15,NNW,345,4.0,14.0,65,-99.99,,,-99.99,,2013-03-03 01:21:00,
2013-03-02 20:32:00,20.0,9.0,30.15,NNW,340,5.0,16.0,63,-99.99,,,-99.99,,2013-03-03 01:32:00,
2013-03-02 20:42:00,20.0,9.0,30.15,NNW,340,5.0,16.0,63,-99.99,,,-99.99,,2013-03-03 01:42:00,
2013-03-02 20:52:00,20.0,9.0,30.14,NW,320,5.0,14.0,64,-99.99,,,-99.99,,2013-03-03 01:52:00,
2013-03-02 21:01:00,19.0,9.0,30.14,North,350,4.0,14.0,64,-99.99,,,-99.99,,2013-03-03 02:01:00,
2013-03-02 21:11:00,19.0,9.0,30.14,North,350,4.0,14.0,64,-99.99,,,-99.99,,2013-03-03 02:11:00,
2013-03-02 21:21:00,19.0,9.0,30.14,West,265,4.0,14.0,64,-99.99,,,-99.99,,2013-03-03 02:21:00,
2013-03-02 21:32:00,20.0,9.0,30.13,NNW,340,6.0,14.0,63,-99.99,,,-99.99,,2013-03-03 02:32:00,
2013-03-02 21:42:00,20.0,9.0,30.13,NNW,340,6.0,14.0,63,-99.99,,,-99.99,,2013-03-03 02:42:00,
2013-03-02 21:52:00,20.0,9.0,30.13,NNW,345,3.0,14.0,62,-99.99,,,-99.99,,2013-03-03 02:52:00,
2013-03-02 22:01:00,20.0,9.0,30.13,North,0,5.0,14.0,63,-99.99,,,-99.99,,2013-03-03 03:01:00,
2013-03-02 22:11:00,20.0,9.0,30.13,North,0,5.0,14.0,63,-99.99,,,-99.99,,2013-03-03 03:11:00,
2013-03-02 22:21:00,20.0,10.0,30.12,NNW,335,4.0,14.0,65,-99.99,,,-99.99,,2013-03-03 03:21:00,
2013-03-02 22:32:00,20.0,10.0,30.13,NNE,15,6.0,13.0,65,-99.99,,,-99.99,,2013-03-03 03:32:00,
2013-03-02 22:42:00,20.0,10.0,30.13,NNE,15,6.0,13.0,65,-99.99,,,-99.99,,2013-03-03 03:42:00,
2013-03-02 22:51:00,20.0,10.0,30.12,North,0,4.0,14.0,66,-99.99,,,-99.99,,2013-03-03 03:51:00,
2013-03-02 23:01:00,20.0,11.0,30.12,NNW,345,6.0,14.0,67,-99.99,,,-99.99,,2013-03-03 04:01:00,
2013-03-02 23:11:00,20.0,11.0,30.12,NNW,345,6.0,14.0,67,-99.99,,,-99.99,,2013-03-03 04:11:00,
2013-03-02 23:21:00,21.0,11.0,30.11,North,0,9.0,16.0,65,-99.99,,,-99.99,,2013-03-03 04:21:00,
2013-03-02 23:32:00,20.0,11.0,30.11,North,10,2.0,12.0,67,-99.99,,,-99.99,,2013-03-03 04:32:00,
2013-03-02 23:42:00,20.0,11.0,30.11,North,10,2.0,12.0,67,-99.99,,,-99.99,,2013-03-03 04:42:00,
2013-03-02 23:51:00,21.0,11.0,30.10,North,10,6.0,16.0,66,-99.99,,,-99.99,,2013-03-03 04:51:00,